sat.trackr.live / text

‹ back to catalog

STARLINK-33754

NORAD 63487 · 2025-070AD

PAYLOAD ACTIVE UNKNOWN

§ Identity

Operator
Country
US
Launch date
2025-04-06
Launch site
AFETR
Launch vehicle
Mass (kg)
RCS (m²)

Purposes: comms

External: N2YO · Heavens-Above · Gunter

§ Orbital elements

Epoch: 2026-09-20T22:08:17.037024Z

Period
94.27 min
Inclination
43.0016°
Eccentricity
0.0001577
Mean motion
15.27582214 rev/d
Perigee alt
482.0 km
Apogee alt
484.1 km
Semi-major
6,861.2 km
B*
3.8093e-4
RAAN
237.3052°
Arg perigee
259.1736°
Mean anomaly
100.8939°
Rev number
8,283

§ Raw data

STARLINK-337541 63487U 25070AD  26263.92241941  .00010235  00000+0  38093-3 0  99992 63487  43.0016 237.3052 0001577 259.1736 100.8939 15.27582214 82837

JSON: /api/v1/satellites/63487 · /tle

For live sub-satellite position, see the globe view (requires WebGL).

§ Visibility from observer

Set your observer location to see the next 7 days of passes ≥ 10°. The values pass through the URL so the page stays shareable.

No JS? Fill the form by hand. The geolocation button needs JavaScript.